Wind_Speed
44 44 43 42 41 41 41 41 41 40 40 39 38 37 38 38 37 37 36 36 36 36 36 36 35 35 34 35 35 35 35 35 34 34 34 34 34 34 35 35 36 36 36
46 45 45 45 44 43 42 42 42 42 41 40 40 39 39 39 38 38 38 38 38 38 38 37 36 36 36 36 36 36 36 36 36 35 35 35 35 35 35 36 37 37 38
47 46 46 45 45 44 43 42 42 42 42 42 42 41 41 41 40 39 40 40 40 39 40 39 38 36 36 36 37 37 37 37 36 36 37 37 37 36 36 37 38 38 38
48 48 47 46 45 44 44 44 43 43 43 43 43 43 42 42 41 41 42 42 41 41 41 40 39 39 39 38 38 37 37 37 37 37 38 38 38 38 37 37 38 39 39
48 48 47 46 46 46 45 45 45 45 44 44 43 44 43 43 43 43 43 43 43 43 42 41 40 40 40 40 40 40 40 40 39 39 39 39 39 40 39 38 38 39 40
47 47 47 46 46 46 46 46 46 45 45 45 44 44 44 44 44 44 43 43 43 43 42 41 40 40 41 42 42 41 42 42 41 41 41 41 40 40 40 41 40 40 40
47 47 45 45 45 45 45 46 46 46 46 46 45 45 45 45 44 44 44 43 43 43 42 41 41 41 41 42 42 43 43 43 42 41 42 42 42 42 42 42 41 41 41
46 46 46 45 45 45 45 45 45 45 45 46 45 45 45 46 45 45 44 44 43 42 42 42 42 42 42 43 44 44 43 43 42 43 43 42 42 42 42 42 42 41 41
44 45 46 46 45 45 46 46 45 45 45 45 45 46 46 46 46 45 45 45 45 43 43 43 43 44 44 44 45 44 43 43 43 43 43 43 43 43 43 43 43 43 43
44 44 45 45 46 46 46 46 46 46 47 47 46 46 46 46 47 46 46 46 45 45 44 44 44 45 45 45 45 44 43 44 43 42 43 44 45 44 44 44 45 45 45
45 45 46 46 47 47 47 46 47 47 47 46 46 45 46 46 46 46 46 46 46 46 45 45 45 45 45 44 44 44 45 45 44 43 43 44 45 46 46 45 46 46 47
46 46 47 47 47 47 48 48 48 47 47 47 46 46 46 46 46 46 46 46 46 46 46 46 45 44 44 44 44 44 45 45 45 45 45 45 45 46 47 46 46 47 47
45 46 47 47 47 47 48 48 48 48 48 48 48 47 47 47 47 47 47 47 46 46 46 46 45 45 44 44 44 44 45 45 44 44 44 45 45 46 46 47 47 48 49
42 44 46 47 47 48 47 47 47 48 48 48 48 48 48 48 49 49 49 49 48 48 47 46 45 45 45 44 44 45 45 45 45 45 45 45 46 47 47 48 49 50 50
42 43 45 46 47 47 48 47 47 48 48 49 49 49 49 49 49 50 50 50 50 49 48 47 46 46 45 45 44 45 45 46 46 47 47 47 47 48 48 49 50 50 50
39 41 42 44 45 46 47 47 47 47 47 48 48 48 49 49 49 50 50 50 49 49 48 48 47 47 46 46 46 46 46 46 47 48 48 48 47 48 48 49 50 50 50
37 38 40 41 43 44 45 46 47 47 46 46 47 47 47 48 48 49 49 49 49 49 49 49 49 49 47 47 47 47 47 46 47 47 48 47 48 48 48 49 49 49 50
35 37 39 40 41 42 43 44 45 46 46 47 47 47 47 47 47 47 47 48 48 48 48 48 49 49 48 47 47 47 47 46 46 46 46 47 48 48 48 49 49 49 49
33 35 37 38 40 41 42 42 43 44 44 45 46 46 46 46 46 46 45 46 46 46 47 47 47 48 48 48 47 47 47 46 46 46 46 47 48 49 49 49 48 48 48
34 35 36 37 38 40 41 42 43 43 43 44 45 45 46 46 46 46 45 45 45 46 46 45 46 46 46 46 46 46 46 46 46 46 46 47 48 48 48 47 47 47 46
34 35 36 36 38 39 40 40 41 42 43 43 43 44 44 44 45 44 45 45 45 45 45 45 44 44 44 44 45 45 45 45 45 46 46 46 46 46 46 47 47 47 46
35 35 36 36 37 38 39 39 40 41 42 42 43 43 44 44 44 44 44 44 44 44 44 43 43 43 43 43 44 44 45 45 46 46 45 45 45 46 46 47 47 46 46
34 35 35 35 36 37 38 39 39 39 40 41 41 42 43 43 43 44 44 44 43 43 43 43 42 42 42 42 43 43 43 44 45 45 45 44 44 44 45 45 45 45 45
33 34 34 35 35 36 36 37 37 38 38 39 40 41 41 42 42 42 42 42 42 42 41 41 40 40 41 41 41 42 42 42 42 42 42 42 43 43 43 43 43 42 43
32 33 34 35 35 35 35 35 35 36 37 38 38 39 39 39 39 39 39 39 39 40 40 40 40 40 40 40 40 39 39 40 40 40 40 41 41 42 42 41 41 41 41
32 32 33 34 34 34 35 34 34 34 35 35 36 37 37 37 37 37 37 37 38 38 39 39 39 39 39 39 38 38 38 38 38 39 39 39 40 40 40 40 40 39 39
Wind_Direction
232 234 235 236 237 238 239 240 241 242 244 245 246 247 249 251 253 254 255 257 259 261 262 264 266 268 271 272 274 276 277 279 281 283 284 286 287 288 289 290 292 293 294
232 234 235 237 237 238 240 240 242 243 244 246 247 248 250 251 253 255 256 258 259 260 261 261 264 267 269 271 273 274 276 279 280 282 283 284 286 286 288 290 291 292 294
233 235 236 238 238 238 239 241 242 243 244 246 247 248 250 252 253 255 256 258 258 259 260 262 264 267 268 270 273 274 276 277 279 281 282 284 285 285 286 288 290 292 293
234 236 238 239 239 239 240 241 243 244 245 246 248 249 251 253 255 256 257 258 259 261 262 263 263 265 267 268 270 273 276 277 278 280 282 283 284 285 286 287 289 291 292
236 237 239 240 240 240 240 242 243 244 245 247 249 250 251 253 255 257 259 261 261 262 263 264 263 265 268 269 270 272 274 276 278 280 281 283 284 285 286 286 288 289 291
238 239 240 240 241 241 241 241 243 244 246 248 249 251 253 255 256 258 260 262 262 263 263 264 265 266 269 269 270 272 274 276 277 279 280 281 283 285 286 287 287 288 290
238 239 239 240 241 242 242 243 243 245 247 248 250 252 254 256 257 258 260 262 262 262 263 265 266 267 269 269 270 272 273 275 276 278 280 282 283 284 286 287 288 289 290
238 239 239 240 241 242 243 244 245 246 248 249 250 252 254 255 256 258 260 261 262 263 264 267 268 269 269 269 270 272 273 274 276 278 280 282 283 284 286 288 288 289 290
238 239 240 240 241 242 243 244 244 246 248 249 250 252 254 255 257 259 260 261 261 263 264 267 268 269 270 271 271 271 272 273 275 277 279 280 283 285 286 288 289 289 290
238 239 240 240 241 243 243 244 245 247 248 249 251 253 255 256 257 258 258 259 260 262 263 266 268 269 270 271 271 270 271 273 275 276 278 280 282 284 286 287 289 290 291
239 239 240 241 242 243 244 245 246 246 248 249 250 253 254 255 256 256 258 258 260 261 263 265 267 269 270 270 271 271 272 273 273 275 277 280 282 284 285 287 289 290 291
239 239 240 241 242 244 245 246 247 247 248 249 250 252 254 256 256 256 258 260 261 261 263 265 266 268 269 270 272 272 272 272 273 275 278 279 282 284 285 286 288 289 291
240 240 241 241 242 243 245 247 248 249 249 250 252 253 255 256 257 257 258 260 261 262 264 265 266 268 270 271 272 272 272 272 273 275 277 279 281 284 285 287 289 290 291
242 241 242 243 243 244 246 247 248 249 251 252 254 255 256 257 257 258 258 259 260 262 264 266 267 268 269 271 271 272 273 273 273 275 277 279 281 283 285 287 289 290 292
244 243 243 244 244 246 247 248 249 250 251 252 254 256 257 257 257 258 259 260 262 263 265 265 266 268 269 270 271 272 273 273 273 275 277 279 282 283 285 287 289 290 292
246 245 244 244 245 246 247 248 250 251 252 253 254 256 257 257 258 258 259 260 262 263 264 264 266 267 268 270 271 272 273 273 274 275 276 279 281 283 285 287 289 290 291
246 246 245 245 245 246 247 248 249 251 252 254 254 255 257 258 258 259 260 261 262 263 264 265 266 268 269 270 270 271 272 273 274 275 276 278 280 283 284 286 288 290 291
246 246 246 246 247 248 248 249 250 251 253 253 254 255 257 258 259 260 261 262 262 263 265 266 267 267 268 268 269 270 272 273 274 275 276 278 280 283 285 287 288 289 290
247 247 247 248 249 249 250 251 252 253 254 254 255 256 257 257 259 260 261 263 264 265 266 267 267 267 267 268 269 270 272 273 274 275 276 278 280 282 285 286 288 288 289
250 250 251 250 251 251 251 253 254 255 255 256 256 256 257 257 258 260 261 263 265 266 267 267 268 268 269 270 269 270 271 272 274 275 277 279 281 282 284 286 287 288 288
253 253 253 253 253 253 253 255 255 256 256 256 257 257 258 258 259 261 262 264 265 266 267 267 268 269 269 269 269 270 271 272 273 275 277 279 280 282 283 285 286 286 286
255 255 255 255 255 255 255 256 257 258 258 257 258 259 260 261 261 263 264 265 266 267 267 268 268 268 268 269 271 272 272 273 274 275 277 279 281 282 283 285 286 286 286
256 256 256 257 257 258 258 258 259 259 259 259 260 261 261 261 262 263 264 264 265 266 266 267 268 269 269 269 271 272 273 274 276 277 278 280 282 283 285 286 286 286 286
259 258 258 257 258 259 260 261 261 261 261 262 262 262 263 263 263 263 264 264 264 265 266 266 268 269 270 271 271 272 273 275 277 278 279 281 283 284 286 287 287 287 287
259 258 258 258 259 259 260 261 262 262 262 262 262 263 263 263 263 264 264 264 265 264 265 266 267 268 269 271 271 273 274 275 277 279 280 282 284 286 287 287 287 287 287
258 258 258 258 259 259 260 261 261 262 262 262 262 263 264 264 264 264 264 265 264 265 265 266 267 267 268 270 271 273 275 276 277 279 280 282 285 286 287 287 286 286 286
Height
5755 5759 5764 5768 5771 5775 5779 5782 5785 5788 5791 5794 5796 5799 5801 5803 5804 5806 5807 5808 5809 5810 5811 5812 5812 5813 5813 5813 5813 5813 5812 5811 5811 5810 5809 5807 5806 5804 5803 5801 5799 5796 5794
5746 5751 5755 5759 5763 5767 5770 5773 5776 5779 5782 5785 5788 5790 5792 5794 5796 5798 5799 5800 5801 5802 5802 5803 5804 5804 5805 5805 5805 5805 5804 5804 5803 5802 5801 5800 5800 5797 5795 5793 5791 5789 5786
5738 5742 5746 5750 5754 5758 5761 5764 5768 5771 5774 5777 5779 5782 5784 5786 5787 5789 5790 5791 5792 5793 5794 5794 5795 5796 5797 5797 5796 5796 5796 5795 5795 5794 5793 5792 5791 5790 5789 5786 5783 5781 5778
5729 5733 5737 5741 5745 5748 5752 5755 5758 5762 5765 5767 5770 5773 5775 5777 5779 5780 5781 5782 5783 5784 5784 5785 5786 5786 5787 5788 5788 5788 5787 5787 5786 5785 5784 5784 5782 5781 5781 5779 5776 5773 5770
5720 5724 5728 5732 5736 5739 5743 5746 5749 5752 5755 5758 5761 5763 5766 5767 5769 5771 5772 5773 5774 5774 5775 5775 5776 5777 5777 5778 5778 5778 5778 5778 5777 5777 5776 5775 5773 5772 5771 5770 5769 5766 5762
5710 5714 5718 5722 5726 5730 5733 5737 5740 5743 5746 5749 5751 5754 5756 5758 5760 5761 5762 5763 5764 5764 5765 5765 5766 5767 5767 5768 5768 5768 5768 5768 5768 5767 5766 5765 5764 5763 5761 5760 5759 5757 5754
5700 5704 5708 5712 5716 5720 5724 5727 5730 5734 5736 5739 5742 5744 5746 5748 5750 5751 5752 5754 5754 5755 5755 5756 5756 5757 5757 5758 5758 5758 5758 5758 5757 5757 5757 5756 5754 5753 5751 5750 5748 5747 5745
5689 5694 5698 5702 5707 5710 5714 5717 5721 5724 5727 5729 5732 5734 5737 5738 5740 5741 5742 5743 5744 5745 5746 5746 5746 5747 5747 5747 5748 5748 5747 5747 5747 5747 5747 5746 5744 5743 5741 5740 5738 5736 5735
5679 5684 5688 5693 5697 5700 5704 5707 5711 5714 5717 5720 5722 5724 5726 5728 5729 5731 5732 5733 5734 5735 5736 5736 5737 5737 5737 5737 5737 5737 5737 5737 5737 5737 5736 5736 5734 5733 5731 5729 5727 5725 5723
5669 5674 5678 5682 5686 5690 5694 5697 5700 5703 5706 5709 5712 5714 5716 5718 5719 5720 5721 5723 5724 5725 5725 5726 5726 5727 5727 5726 5726 5727 5727 5727 5727 5727 5726 5725 5724 5722 5720 5718 5716 5714 5711
5660 5664 5668 5672 5676 5680 5683 5686 5690 5693 5696 5699 5701 5703 5705 5707 5708 5710 5711 5712 5713 5714 5715 5716 5716 5716 5716 5716 5716 5716 5717 5717 5717 5716 5716 5715 5713 5712 5710 5708 5705 5703 5700
5650 5654 5658 5662 5666 5669 5673 5676 5679 5682 5685 5688 5690 5692 5694 5696 5697 5699 5700 5701 5702 5703 5704 5705 5706 5706 5706 5706 5706 5706 5706 5706 5706 5706 5705 5704 5703 5701 5699 5697 5695 5692 5689
5640 5644 5648 5652 5655 5659 5662 5665 5668 5671 5674 5677 5679 5681 5683 5685 5686 5688 5689 5690 5692 5692 5693 5694 5695 5695 5695 5695 5695 5695 5695 5695 5695 5695 5694 5693 5692 5690 5688 5686 5683 5680 5677
5630 5634 5637 5641 5645 5648 5652 5655 5658 5660 5663 5665 5667 5669 5671 5673 5675 5677 5678 5679 5680 5681 5682 5683 5683 5684 5684 5684 5684 5684 5684 5684 5684 5684 5683 5682 5681 5679 5677 5674 5672 5669 5665
5621 5624 5627 5631 5634 5637 5641 5644 5647 5649 5652 5654 5656 5658 5660 5661 5663 5665 5666 5667 5669 5670 5670 5671 5672 5672 5673 5673 5673 5673 5673 5673 5673 5672 5671 5670 5669 5667 5665 5662 5660 5657 5653
5611 5615 5617 5620 5623 5626 5629 5632 5635 5638 5640 5642 5644 5646 5648 5649 5651 5653 5654 5656 5657 5658 5659 5659 5660 5661 5661 5661 5661 5661 5661 5661 5661 5660 5659 5658 5657 5655 5653 5650 5647 5644 5641
5602 5605 5607 5610 5613 5616 5619 5621 5624 5626 5629 5631 5633 5634 5636 5637 5639 5641 5642 5643 5645 5646 5647 5647 5648 5649 5649 5649 5649 5649 5649 5649 5649 5648 5647 5646 5645 5643 5641 5638 5635 5632 5628
5593 5596 5598 5601 5603 5606 5608 5611 5613 5616 5618 5619 5621 5623 5624 5626 5627 5629 5630 5631 5632 5633 5634 5635 5636 5636 5637 5637 5637 5637 5637 5637 5636 5636 5635 5634 5633 5631 5628 5626 5623 5620 5616
5585 5587 5589 5591 5594 5596 5598 5600 5603 5604 5606 5608 5610 5611 5613 5614 5616 5617 5619 5620 5620 5621 5622 5623 5623 5624 5624 5624 5624 5624 5624 5624 5624 5623 5622 5621 5620 5618 5616 5614 5611 5608 5605
5576 5578 5580 5582 5584 5586 5588 5590 5592 5593 5595 5596 5598 5600 5601 5603 5604 5606 5607 5608 5608 5609 5610 5610 5611 5611 5611 5612 5612 5612 5612 5612 5612 5611 5610 5609 5607 5605 5603 5600 5598 5596 5594
5567 5569 5571 5573 5574 5576 5577 5579 5581 5582 5584 5585 5587 5588 5589 5591 5592 5594 5595 5596 5596 5597 5598 5598 5599 5599 5599 5599 5600 5599 5599 5599 5599 5599 5598 5596 5594 5592 5590 5588 5586 5584 5581
5558 5560 5561 5563 5564 5566 5567 5569 5570 5571 5573 5574 5575 5576 5578 5579 5581 5582 5583 5583 5584 5585 5585 5586 5586 5587 5587 5587 5587 5587 5587 5586 5586 5586 5585 5584 5582 5580 5578 5575 5573 5571 5568
5549 5551 5552 5553 5555 5556 5557 5558 5560 5560 5562 5563 5564 5565 5566 5567 5569 5570 5571 5571 5572 5573 5573 5574 5575 5575 5575 5575 5576 5575 5575 5574 5574 5573 5572 5571 5570 5567 5565 5563 5561 5558 5556
5540 5541 5543 5544 5545 5546 5547 5548 5549 5550 5551 5552 5553 5554 5555 5556 5557 5558 5559 5560 5560 5561 5562 5562 5563 5563 5564 5564 5564 5564 5564 5563 5562 5561 5560 5559 5558 5556 5554 5551 5549 5547 5544
5531 5532 5533 5534 5535 5536 5537 5538 5539 5540 5540 5541 5542 5543 5544 5545 5546 5547 5548 5549 5549 5550 5551 5551 5552 5553 5553 5553 5553 5553 5553 5552 5551 5550 5550 5548 5547 5545 5542 5540 5538 5535 5533
5521 5522 5523 5524 5525 5526 5527 5528 5529 5529 5530 5531 5532 5533 5534 5535 5536 5537 5538 5538 5539 5539 5540 5540 5541 5542 5543 5543 5543 5542 5542 5541 5541 5540 5539 5538 5536 5534 5531 5529 5527 5525 5523